Skip Page Navigation
NASA JPL Caltech
NASA Logo - Jet Propulsion Laboratory + View the NASA Portal
+ Center for Near-Earth Object Studies
JPL Home Earth Solar System Stars & Galaxies Technology
JPL Solar System Dynamics
BODIES ORBITS EPHEMERIDES TOOLS PHYSICAL DATA DISCOVERY FAQ SITE MAP
IMPORTANT: The SSD Announcement email list is now available. Major changes are coming in the near future, including possible hostname and/or URL changes. To be notified of such changes, subscribe to this email list.

Please visit this page for more details.


JPL Small-Body Database Browser
Search: [ help ]  
410012 (2006 WX77)
Classification: Main-belt Asteroid          SPK-ID: 2410012
Ephemeris | Orbit Diagram | Orbital Elements | Mission Design | Physical Parameters | Discovery Circumstances ]

[ show orbit diagram ]
Orbital Elements at Epoch 2458600.5 (2019-Apr-27.0) TDB
Reference: JPL 18 (heliocentric ecliptic J2000)
 Element Value Uncertainty (1-sigma)   Units 
e .1419603038181713 4.6702e-08  
a 2.583990299256817 3.11e-08 au
q 2.217166251311112 1.2976e-07 au
i 13.58212643047631 6.9817e-06 deg
node 56.57833139620482 2.3214e-05 deg
peri 255.7266603151745 3.682e-05 deg
M 87.72480206088771 2.7742e-05 deg
tp 2458230.795581175380
(2018-Apr-22.29558118)
0.00011732 TDB
period 1517.171742199954
4.15
2.7391e-05
7.499e-08
d
yr
n .2372836179231674 4.2838e-09 deg/d
Q 2.950814347202522 3.5515e-08 au
  Orbit Determination Parameters
   # obs. used (total)      210  
   data-arc span      4477 days (12.26 yr)  
   first obs. used      2006-10-19  
   last obs. used      2019-01-21  
   planetary ephem.      DE431  
   SB-pert. ephem.      SB431-N16  
   condition code      0  
   norm. resid. RMS      .66326  
   source      ORB  
   producer      Otto Matic  
   solution date      2019-Jul-14 10:08:44  

Additional Information
 Earth MOID = 1.24784 au 
 Jupiter MOID = 2.35173 au 
 T_jup = 3.370 
[ show covariance matrix ]

Ephemeris | Orbit Diagram | Orbital Elements | Mission Design | Physical Parameters | Discovery Circumstances ]

Physical Parameter Table
Parameter Symbol Value Units Sigma Reference Notes
absolute magnitude H 16.4   n/a MPO455914  

410012 (2006 WX77)          Discovered 2006-Oct-19 by Mt. Lemmon Survey at Mount Lemmon
Reference: Last Updated: 2014-10-09
Ephemeris | Orbit Diagram | Orbital Elements | Mission Design | Physical Parameters | Discovery Circumstances ]
ABOUT SSD CREDITS/AWARDS PRIVACY/COPYRIGHT GLOSSARY LINKS
FirstGov 2020-Jan-29 12:30 UT
(server date/time)  
NASA Home Page
Site Manager:   Ryan S. Park
Webmaster  Alan B. Chamberlin